Weather Roundup
Issued by NWS Chicago, IL

Home | Current Version | Previous Version | Graphics & Text | Print | Product List | Glossary On
Versions: 1 2 3 4 5 6 7 8 9 10 11 12 13 14 15 16 17 18 19 20 21 22 23 24 25 26 27 28 29 30 31 32 33 34 35 36 37 38 39 40 41 42 43 44 45 46 47 48 49 50
000
NZUS59 KLOT 290003
HRRLOT

CHICAGO AREA WEATHER ROUNDUP
NATIONAL WEATHER SERVICE CHICAGO/ROMEOVILLE IL
700 PM CDT THU APR 28 2016

NOTE: "FAIR" INDICATES FEW OR NO CLOUDS BELOW 12,000 FEET WITH NO
SIGNIFICANT WEATHER AND/OR OBSTRUCTIONS TO VISIBILITY.

* THESE STATIONS ARE NOT UNDER NWS QUALITY CONTROL. THEY ALSO MAY NOT
  REPORT WEATHER SUCH AS PRECIPITATION OR FOG.

ILZ005-006-012>014-019>023-290100-
NORTHEAST ILLINOIS

CITY           SKY/WX    TMP DP  RH WIND       PRES   REMARKS
OHARE          CLOUDY    44  39  82 NE7       29.96R
6HR MIN TEMP:  44; 6HR MAX TEMP:  50;

MIDWAY         CLOUDY    48  40  73 NE9       29.96R
6HR MIN TEMP:  48; 6HR MAX TEMP:  51;

AURORA         CLOUDY    48  41  76 NE13      29.96R
6HR MIN TEMP:  48; 6HR MAX TEMP:  54;

LANSING*       CLOUDY    47  42  84 N6        29.95R
WAUKEGAN       CLOUDY    40  39  97 NE8       29.98R
6HR MIN TEMP:  40; 6HR MAX TEMP:  42;

DUPAGE AIRPORT CLOUDY    45  39  79 NE8       29.96R
6HR MIN TEMP:  45; 6HR MAX TEMP:  52;

WHEELING       CLOUDY    42  39  89 NE8       29.98R
6HR MIN TEMP:  42; 6HR MAX TEMP:  47;

$$

WIZ051-052-058>065-066-070>072-290100-
SOUTHEAST WISCONSIN

CITY           SKY/WX    TMP DP  RH WIND       PRES   REMARKS
MILWAUKEE      CLOUDY    40  37  89 NE13      30.00S
6HR MIN TEMP:  39; 6HR MAX TEMP:  41;

KENOSHA*       CLOUDY    41  38  89 NE10      29.98S
RACINE*        CLOUDY    41  37  86 NE12      30.00S
BURLINGTON     CLOUDY    38  38  97 NE8       29.99R FOG
WAUKESHA       CLOUDY    37  36  93 NE10      30.01R
$$

INZ001>003-010>013-019-020-290100-
NORTHWEST INDIANA

CITY           SKY/WX    TMP DP  RH WIND       PRES   REMARKS
GARY*          CLOUDY    46  46 100 N6        29.95R
MICHIGAN CITY* NOT AVBL
RENSSELAER*    NOT AVBL
VALPARAISO     CLOUDY    53  47  79 N3        29.93S
$$

LMZ740>746-290100-
SOUTHERN LAKE MICHIGAN

STATION/POSITION TIME  SKY/WX   TEMP WIND        PRES    VSBY
                                AIR  DIR/SP/G
                 (UTC)          (F)  (DEG/KT/KT) (MB)    (MI)
HARRISON CRIB    2300            43   30/ 14/ 15   N/A
BURNHAM HARBOR   0000            44  330/  6/ 10   N/A
CALUMET HARBOR   2300            44              1013.3R
BURNS HARBOR     2311            45   40/  7/ 11 1014.2R
MICHIGAN CITY    2300            45   10/  8/  9   N/A
$$

ABBREVIATIONS USED IN REMARKS
   TC - TEMPERATURE IN CELSIUS
  WCI - WIND CHILL INDEX
   HX - HEAT INDEX
  VSB - VISIBILITY
$$




USA.gov is the U.S. government's official web portal to all federal, state and local government web resources and services.